Marshalltown, IA

12:14 AM CDT on August 23, 2017 (GMT -0500)
Marshalltown Municipal

Weather History for KMIW - October, 2013

Change the Weather History Date:

Saturday, October 26, 2013

  Actual Average Record
Temperature  
Mean Temperature 40 °F 46 °F  
Max Temperature 51 °F 57 °F 73 °F (1996)
Min Temperature 28 °F 35 °F 21 °F (1997)
Degree Days  
Heating Degree Days 25 19  
Month to date heating degree days 363 372  
Since 1 July heating degree days 463 532  
Cooling Degree Days 0 0  
Month to date cooling degree days 16 10  
Year to date cooling degree days 872 728  
Moisture  
Dew Point 28 °F    
Average Humidity 59    
Maximum Humidity 79    
Minimum Humidity 38    
Precipitation  
Precipitation 0.00 in 0.10 in 0.88 in (2004)
Month to date precipitation 1.73 2.07  
Sea Level Pressure  
Sea Level Pressure 30.07 in    
Wind  
Wind Speed 13 mph (WNW)    
Max Wind Speed 25 mph    
Max Gust Speed 31 mph    
Visibility 10 miles    
Events      
T = Trace of Precipitation, MM = Missing Value Source: NWS Daily Summary

Daily Weather History Graph

Daily Weather History Graph

Search for Another Location

Airport or City:

Trip Planner

Search our weather history database for the weather conditions in past years. The results will help you decide how hot, cold, wet, or windy it might be!

Date:

Astronomy

Oct. 26, 2013 Rise Set
Actual Time 7:37 AM CDT 6:13 PM CDT
Civil Twilight 7:08 AM CDT 6:41 PM CDT
Nautical Twilight 6:36 AM CDT 7:14 PM CDT
Astronomical Twilight 6:03 AM CDT 7:46 PM CDT
Moon No Moon Rise 1:54 PM CDT (10/26)
Length of Visible Light 11h 32m
Length of Day
10h 35m
Waning Gibbous, 53% of the Moon is Illuminated
Oct 26
Waning Gibbous
Oct 26
Last Quarter
Nov 3
New
Nov 9
First Quarter
Nov 17
Full

Hourly Weather History & Observations

Time (CDT) Temp. Windchill Dew Point Humidity Pressure Visibility Wind Dir Wind Speed Gust Speed Precip Events Conditions
12:53 AM 43.0 °F 35.7 °F 28.9 °F 58% 29.98 in 10.0 mi SW 15.0 mph - N/A   Clear
1:53 AM 45.0 °F 37.9 °F 28.9 °F 53% 29.94 in 10.0 mi SW 16.1 mph - N/A   Clear
2:53 AM 46.0 °F 39.3 °F 28.9 °F 51% 29.93 in 10.0 mi WSW 16.1 mph - N/A   Clear
3:53 AM 43.0 °F 36.0 °F 30.0 °F 60% 29.93 in 10.0 mi WSW 13.8 mph - N/A   Clear
4:53 AM 43.0 °F 37.2 °F 30.9 °F 62% 29.94 in 10.0 mi West 10.4 mph - N/A   Clear
5:53 AM 39.9 °F 33.9 °F 32.0 °F 73% 29.96 in 10.0 mi WNW 9.2 mph - N/A   Clear
6:53 AM 41.0 °F 33.5 °F 33.1 °F 73% 29.99 in 10.0 mi NW 13.8 mph - N/A   Clear
7:53 AM 39.9 °F 32.5 °F 33.1 °F 77% 30.02 in 10.0 mi NW 12.7 mph - N/A   Clear
8:53 AM 41.0 °F 32.5 °F 30.9 °F 67% 30.04 in 10.0 mi NW 17.3 mph 23.0 mph N/A   Clear
9:53 AM 42.1 °F 33.1 °F 28.9 °F 60% 30.07 in 10.0 mi NW 20.7 mph - N/A   Clear
10:53 AM 42.1 °F 33.9 °F 30.0 °F 62% 30.09 in 10.0 mi NNW 17.3 mph 25.3 mph N/A   Clear
11:53 AM 45.0 °F 37.4 °F 28.0 °F 52% 30.12 in 10.0 mi North 18.4 mph 26.5 mph N/A   Clear
12:53 PM 48.9 °F - 28.9 °F 46% 30.12 in 10.0 mi NNW 23.0 mph 28.8 mph N/A   Clear
1:53 PM 51.1 °F - 27.0 °F 39% 30.11 in 10.0 mi NW 18.4 mph 25.3 mph N/A   Clear
2:53 PM 51.1 °F - 26.1 °F 38% 30.11 in 10.0 mi NW 20.7 mph - N/A   Clear
3:53 PM 51.1 °F - 26.1 °F 38% 30.12 in 10.0 mi NNW 18.4 mph 25.3 mph N/A   Clear
4:53 PM 48.9 °F - 27.0 °F 43% 30.12 in 10.0 mi NW 16.1 mph - N/A   Clear
5:53 PM 46.0 °F 41.0 °F 27.0 °F 47% 30.13 in 10.0 mi NW 10.4 mph - N/A   Clear
6:53 PM 37.9 °F 33.5 °F 27.0 °F 65% 30.14 in 10.0 mi WNW 5.8 mph - N/A   Clear
7:53 PM 36.0 °F 32.1 °F 26.1 °F 67% 30.15 in 10.0 mi WNW 4.6 mph - N/A   Clear
8:53 PM 36.0 °F 32.1 °F 26.1 °F 67% 30.14 in 10.0 mi West 4.6 mph - N/A   Clear
9:53 PM 35.1 °F 32.2 °F 26.1 °F 70% 30.15 in 10.0 mi WNW 3.5 mph - N/A   Clear
10:53 PM 32.0 °F - 26.1 °F 79% 30.16 in 10.0 mi Calm Calm - N/A   Clear
11:53 PM 30.0 °F 25.2 °F 25.0 °F 82% 30.14 in 10.0 mi WSW 4.6 mph - N/A   Clear